| time (UTC) | temp F | wind direction | speed knots | gust knots | rain 1hr in | rain 24hr in | rain mn in | humidity % | barometer mb |
| 20260504140606 | 45 | 0 | 0.0 | 0.9 | 0.00 | 0.05 | 0.05 | 83 | 1017.8 |
| 20260504140112 | 45 | 0 | 0.0 | 0.9 | 0.00 | 0.05 | 0.05 | 84 | 1017.9 |
| 20260504130607 | 41 | 0 | 0.0 | 0.9 | 0.00 | 0.05 | 0.05 | 83 | 1017.6 |
| 20260504130112 | 41 | 0 | 0.0 | 0.9 | 0.00 | 0.05 | 0.05 | 83 | 1017.6 |
| 20260504120112 | 40 | 0 | 0.0 | 0.9 | 0.00 | 0.05 | 0.05 | 82 | 1017.0 |
| 20260504110609 | 40 | 0 | 0.0 | 0.0 | 0.00 | 0.05 | 0.05 | 81 | 1017.2 |
| 20260504110111 | 40 | 0 | 0.0 | 0.9 | 0.00 | 0.05 | 0.05 | 81 | 1017.0 |
| 20260504100607 | 41 | 0 | 0.0 | 0.9 | 0.01 | 0.05 | 0.05 | 81 | 1017.0 |
| 20260504080606 | 43 | 0 | 0.0 | 0.0 | 0.04 | 0.04 | 0.04 | 77 | 1018.8 |
| 20260504080111 | 43 | 0 | 0.0 | 0.0 | 0.04 | 0.04 | 0.04 | 77 | 1018.8 |
| 20260504070111 | 50 | 0 | 0.0 | 5.2 | 0.00 | 0.00 | 0.00 | 43 | 1019.7 |
| 20260504060111 | 50 | 0 | 0.9 | 6.1 | 0.00 | 0.00 | 0.00 | 42 | 1019.0 |
| 20260504050607 | 52 | 0 | 0.0 | 0.0 | 0.00 | 0.00 | 0.00 | 36 | 1019.0 |
| 20260504050113 | 52 | 0 | 0.0 | 0.0 | 0.00 | 0.00 | 0.00 | 36 | 1019.0 |
| 20260504040606 | 54 | 0 | 0.9 | 7.0 | 0.00 | 0.00 | 0.00 | 30 | 1020.0 |
| 20260504040111 | 54 | 0 | 1.7 | 7.0 | 0.00 | 0.00 | 0.00 | 30 | 1019.9 |
| 20260504030113 | 55 | 0 | 0.0 | 0.0 | 0.00 | 0.00 | 0.00 | 20 | 1018.6 |
| 20260504020112 | 58 | 0 | 0.0 | 0.0 | 0.00 | 0.00 | 0.00 | 16 | 1018.1 |
| 20260504010606 | 62 | 0 | 0.0 | 0.0 | 0.00 | 0.00 | 0.00 | 13 | 1018.3 |
| 20260504000606 | 62 | 0 | 0.9 | 4.3 | 0.00 | 0.00 | 0.00 | 13 | 1018.8 |
| 20260503230606 | 66 | 0 | 0.0 | 5.2 | 0.00 | 0.00 | 0.00 | 10 | 1019.3 |
| 20260503230112 | 67 | 0 | 0.9 | 5.2 | 0.00 | 0.00 | 0.00 | 8 | 1019.4 |
| 20260503220606 | 64 | 0 | 1.7 | 5.2 | 0.00 | 0.00 | 0.00 | 12 | 1020.5 |
| 20260503220110 | 63 | 0 | 0.0 | 6.1 | 0.00 | 0.00 | 0.00 | 13 | 1020.6 |
| 20260503210606 | 68 | 0 | 1.7 | 10.4 | 0.00 | 0.00 | 0.00 | 10 | 1021.3 |
| 20260503200606 | 67 | 0 | 1.7 | 6.1 | 0.00 | 0.00 | 0.00 | 8 | 1022.2 |
| 20260503190606 | 70 | 0 | 2.6 | 6.1 | 0.00 | 0.00 | 0.00 | 8 | 1023.1 |
| 20260503190111 | 69 | 0 | 0.9 | 6.1 | 0.00 | 0.00 | 0.00 | 11 | 1023.2 |
| 20260503180606 | 67 | 0 | 1.7 | 7.8 | 0.00 | 0.00 | 0.00 | 11 | 1024.4 |
| 20260503180111 | 67 | 0 | 1.7 | 7.8 | 0.00 | 0.00 | 0.00 | 12 | 1024.4 |
| 20260503170605 | 64 | 0 | 0.9 | 7.0 | 0.00 | 0.00 | 0.00 | 15 | 1025.0 |
| 20260503160110 | 60 | 0 | 1.7 | 6.1 | 0.00 | 0.00 | 0.00 | 20 | 1025.4 |